Вернуться в каталог

SL-8 R/B

АктивенPO
NORAD 20805·ROCKET BODY·🇷🇺 Russia

Запущен Sep 14, 1990 с Plesetsk Cosmodrome

Loading…

Ближайшие Пролёты (ближайшие 24 часа)

TLE

СвежийSource: Space-Track

Эпоха: Sep 14, 2026, 11:10 UTC

1 20805U 90083B   26257.46527959  .00000152  00000-0  14005-3 0  9995
2 20805  82.9322  73.5364 0029754 322.8619  65.6369 13.76247979807442

Отслеживайте SL-8 R/B в реальном времени с AllMySat

Download on the App Store